Item Display Status Serial CT Sensor

Mooring Depth: 1 m

 

Deployed Sensor

  • Serial Number: 10440
  • NDBC Property Number: 36458
  • Start Date: 12/6/2018 (14:51:27 Z)
  • End Date: Currently Active
Water Temperature [°C]     6 entries per hour
Showing data from 7/9/2020 (15:00:00 Z) to 7/8/2020 (00:00:01 Z)
Previous Next [ Day | 3-Days | 7-Days ]
First Last
Prev [ Day | 3-Days | 7-Days ] Next
First Last

Start Time:     :
End Time:     :     
Time (in GMT) :00 :50 :40 :30 :20 :10
Previous Next [ Day | 3-Days | 7-Days ]
First Last
Prev [ Day | 3-Days | 7-Days ] Next
First Last


123 => good data
MM => data is determined as missing
-- => data not received/configured
Back to Top Back to Top
7/9/2020 15:00 to 14:10 23.585 23.580 23.580 23.577 23.575 23.569
7/9/2020 14:00 to 13:10 23.568 23.570 23.572 23.574 23.574 23.575
7/9/2020 13:00 to 12:10 23.571 23.569 23.568 23.567 23.565 23.570
7/9/2020 12:00 to 11:10 23.572 23.578 23.579 23.579 23.585 23.584
7/9/2020 11:00 to 10:10 23.582 23.584 23.580 23.574 23.575 23.576
7/9/2020 10:00 to 9:10 23.571 23.574 23.566 23.560 23.569 23.567
7/9/2020 09:00 to 8:10 23.564 23.560 23.562 23.565 23.563 23.564
7/9/2020 08:00 to 7:10 23.565 23.570 23.573 23.570 23.572 23.570
7/9/2020 07:00 to 6:10 23.570 23.575 23.578 23.574 23.581 23.573
7/9/2020 06:00 to 5:10 23.582 23.596 23.584 23.587 23.587 23.592
7/9/2020 05:00 to 4:10 23.591 23.610 23.609 23.600 23.599 23.595
7/9/2020 04:00 to 3:10 -- -- 23.581 23.575 23.584 23.586
7/9/2020 03:00 to 2:10 23.579 23.590 23.581 23.587 23.595 23.593
7/9/2020 02:00 to 1:10 23.589 23.586 23.577 23.588 23.567 23.572
7/9/2020 01:00 to 0:10 23.578 23.604 23.602 23.618 23.649 23.644
7/9/2020 00:00 to 23:10 -- -- -- -- -- --
7/8/2020 23:00 to 22:10 23.660 23.656 23.640 23.651 23.648 23.647
7/8/2020 22:00 to 21:10 23.657 23.642 23.643 23.638 23.615 23.600
7/8/2020 21:00 to 20:10 -- -- -- -- -- --
7/8/2020 20:00 to 19:10 -- -- -- -- -- --
7/8/2020 19:00 to 18:10 23.543 23.539 23.552 23.559 23.549 23.538
7/8/2020 18:00 to 17:10 -- -- -- -- -- --
7/8/2020 17:00 to 16:10 -- -- -- -- -- --
7/8/2020 16:00 to 15:10 -- -- -- -- -- --
7/8/2020 15:00 to 14:10 -- -- -- -- -- --
7/8/2020 14:00 to 13:10 23.411 23.409 23.410 23.411 23.411 23.412
7/8/2020 13:00 to 12:10 -- -- -- -- -- --
7/8/2020 12:00 to 11:10 -- -- -- -- -- --
7/8/2020 11:00 to 10:10 -- -- -- -- -- --
7/8/2020 10:00 to 9:10 -- -- -- -- -- --
7/8/2020 09:00 to 8:10 23.476 23.479 23.474 23.467 23.474 23.479
7/8/2020 08:00 to 7:10 23.478 23.480 23.488 23.491 23.494 23.489
7/8/2020 07:00 to 6:10 23.487 23.498 23.494 23.496 23.495 23.506
7/8/2020 06:00 to 5:10 -- -- -- -- -- --
7/8/2020 05:00 to 4:10 23.536 23.543 23.552 23.552 23.555 23.551
7/8/2020 04:00 to 3:10 23.559 23.557 23.571 23.570 23.585 23.585
7/8/2020 03:00 to 2:10 -- -- -- -- -- --
7/8/2020 02:00 to 1:10 -- -- -- -- -- --
7/8/2020 01:00 to 0:10 -- -- -- -- -- --

 

 

 

Conductivity [S/m]     6 entries per hour
Showing data from 7/25/2019 (14:40:00 Z) to 7/24/2019 (00:00:01 Z)
Previous Next [ Day | 3-Days | 7-Days ]
First Last
Prev [ Day | 3-Days | 7-Days ] Next
First Last

Start Time:     :
End Time:     :     
Time (in GMT) :00 :50 :40 :30 :20 :10
Previous Next [ Day | 3-Days | 7-Days ]
First Last
Prev [ Day | 3-Days | 7-Days ] Next
First Last


123 => good data
MM => data is determined as missing
-- => data not received/configured
Back to Top Back to Top
7/25/2019 15:00 to 14:10 -- -- 5.07960 5.07911 5.07961 5.08357
7/25/2019 14:00 to 13:10 5.08129 5.08424 5.08704 5.08890 5.09222 5.09375
7/25/2019 13:00 to 12:10 5.09794 5.09967 5.09931 5.10150 5.10182 5.10311
7/25/2019 12:00 to 11:10 5.10371 5.10564 5.10662 5.10642 5.10818 5.11304
7/25/2019 11:00 to 10:10 5.11311 5.11521 5.11710 5.11788 5.11882 5.12132
7/25/2019 10:00 to 9:10 5.12233 5.12480 5.12636 5.12648 5.12627 5.12876
7/25/2019 09:00 to 8:10 5.13081 5.13018 5.13120 5.13252 5.13482 5.13561
7/25/2019 08:00 to 7:10 5.13706 5.13701 5.13781 5.13856 5.13856 5.13903
7/25/2019 07:00 to 6:10 5.13995 5.13974 5.14152 5.14282 5.14267 5.14481
7/25/2019 06:00 to 5:10 5.14616 5.14527 5.14615 5.14638 5.14552 5.14535
7/25/2019 05:00 to 4:10 5.14716 5.14560 5.14720 5.14630 5.14652 5.14734
7/25/2019 04:00 to 3:10 5.14903 5.14809 5.14910 5.15085 5.14897 5.15052
7/25/2019 03:00 to 2:10 5.15263 5.15441 5.15296 5.15591 5.15529 5.15728
7/25/2019 02:00 to 1:10 5.16230 5.16188 5.16169 5.16487 5.16586 5.16606
7/25/2019 01:00 to 0:10 5.16591 5.16704 5.16964 5.17202 5.17391 5.17460
7/25/2019 00:00 to 23:10 5.17316 5.17084 5.17364 5.17220 5.17113 5.16996
7/24/2019 23:00 to 22:10 5.17089 5.17044 5.17119 5.16968 5.17054 5.16909
7/24/2019 22:00 to 21:10 5.16902 5.17045 5.17305 5.17155 5.17067 5.16828
7/24/2019 21:00 to 20:10 5.16638 5.16618 5.16704 5.16539 5.16724 5.16415
7/24/2019 20:00 to 19:10 5.16278 5.16666 5.16541 5.16520 5.16387 5.16499
7/24/2019 19:00 to 18:10 5.16457 5.16408 5.16434 5.16443 5.16577 5.16475
7/24/2019 18:00 to 17:10 5.16360 5.16546 5.16294 5.16460 5.16137 5.16047
7/24/2019 17:00 to 16:10 5.16031 5.15877 5.15874 5.15696 5.15675 5.15681
7/24/2019 16:00 to 15:10 5.15661 5.15677 5.15691 5.15683 5.15684 5.15689
7/24/2019 15:00 to 14:10 5.15682 5.15688 5.15726 5.15757 5.15721 5.15758
7/24/2019 14:00 to 13:10 5.15721 5.15808 5.15848 5.15850 5.15930 5.15998
7/24/2019 13:00 to 12:10 5.15947 5.15991 5.15953 5.16014 5.16027 5.16055
7/24/2019 12:00 to 11:10 5.16095 5.16046 5.16114 5.16115 5.16204 5.16176
7/24/2019 11:00 to 10:10 5.16202 5.16212 5.16197 5.16287 5.16303 5.16399
7/24/2019 10:00 to 9:10 5.16464 5.16488 5.16504 5.16492 5.16591 5.16679
7/24/2019 09:00 to 8:10 5.16701 5.16785 5.16844 5.16914 5.16958 5.16896
7/24/2019 08:00 to 7:10 5.16966 5.17125 5.17173 5.17339 5.17316 5.17556
7/24/2019 07:00 to 6:10 5.17484 5.17601 5.17839 5.17800 5.17819 5.17922
7/24/2019 06:00 to 5:10 5.18006 5.18074 5.18081 5.18191 5.18226 5.18326
7/24/2019 05:00 to 4:10 5.18296 5.18333 5.18359 5.18379 5.18462 5.18501
7/24/2019 04:00 to 3:10 5.18519 5.18669 5.18734 5.18776 5.18781 5.18986
7/24/2019 03:00 to 2:10 5.19057 5.19153 5.19123 5.19118 5.19198 5.19202
7/24/2019 02:00 to 1:10 5.19301 5.19313 5.19398 5.19459 5.19468 5.19465
7/24/2019 01:00 to 0:10 5.19594 5.19598 5.19673 5.19734 5.19882 5.19850

 

 

 

Salinity [psu]     6 entries per hour
Showing data from 7/25/2019 (14:20:00 Z) to 7/24/2019 (00:00:01 Z)
Previous Next [ Day | 3-Days | 7-Days ]
First Last
Prev [ Day | 3-Days | 7-Days ] Next
First Last

Start Time:     :
End Time:     :     
Time (in GMT) :00 :50 :40 :30 :20 :10
Previous Next [ Day | 3-Days | 7-Days ]
First Last
Prev [ Day | 3-Days | 7-Days ] Next
First Last


123 => good data
MM => data is determined as missing
-- => data not received/configured
Back to Top Back to Top
7/25/2019 15:00 to 14:10 -- -- -- -- 34.86 34.87
7/25/2019 14:00 to 13:10 34.87 34.87 34.88 34.88 34.88 34.88
7/25/2019 13:00 to 12:10 34.89 34.89 34.89 34.89 34.89 34.89
7/25/2019 12:00 to 11:10 34.89 34.89 34.89 34.89 34.89 34.89
7/25/2019 11:00 to 10:10 34.88 34.89 34.88 34.89 34.89 34.89
7/25/2019 10:00 to 9:10 34.88 34.89 34.89 34.89 34.89 34.89
7/25/2019 09:00 to 8:10 34.89 34.88 34.88 34.88 34.89 34.89
7/25/2019 08:00 to 7:10 34.89 34.89 34.89 34.89 34.88 34.88
7/25/2019 07:00 to 6:10 34.88 34.87 34.86 34.87 34.87 34.87
7/25/2019 06:00 to 5:10 34.88 34.87 34.86 34.86 34.85 34.85
7/25/2019 05:00 to 4:10 34.85 34.85 34.83 34.83 34.83 34.84
7/25/2019 04:00 to 3:10 34.84 34.83 34.84 34.84 34.84 34.84
7/25/2019 03:00 to 2:10 34.84 34.86 34.84 34.85 34.83 34.84
7/25/2019 02:00 to 1:10 34.86 34.86 34.86 34.87 34.87 34.87
7/25/2019 01:00 to 0:10 34.86 34.87 34.88 34.89 34.90 34.90
7/25/2019 00:00 to 23:10 34.89 34.88 34.88 34.88 34.87 34.86
7/24/2019 23:00 to 22:10 34.88 34.88 34.88 34.87 34.87 34.86
7/24/2019 22:00 to 21:10 34.88 34.89 34.89 34.89 34.89 34.90
7/24/2019 21:00 to 20:10 34.89 34.89 34.90 34.90 34.89 34.88
7/24/2019 20:00 to 19:10 34.88 34.90 34.90 34.91 34.91 34.91
7/24/2019 19:00 to 18:10 34.92 34.91 34.92 34.92 34.92 34.92
7/24/2019 18:00 to 17:10 34.93 34.93 34.93 34.93 34.92 34.93
7/24/2019 17:00 to 16:10 34.93 34.93 34.93 34.93 34.93 34.93
7/24/2019 16:00 to 15:10 34.93 34.93 34.93 34.93 34.93 34.93
7/24/2019 15:00 to 14:10 34.93 34.93 34.93 34.93 34.92 34.93
7/24/2019 14:00 to 13:10 34.93 34.93 34.93 34.93 34.93 34.93
7/24/2019 13:00 to 12:10 34.93 34.92 34.92 34.92 34.92 34.92
7/24/2019 12:00 to 11:10 34.92 34.92 34.92 34.92 34.92 34.92
7/24/2019 11:00 to 10:10 34.92 34.92 34.92 34.92 34.92 --
7/24/2019 10:00 to 9:10 34.93 34.92 34.93 34.93 34.92 34.93
7/24/2019 09:00 to 8:10 34.92 34.93 34.93 34.93 34.93 34.93
7/24/2019 08:00 to 7:10 34.93 34.93 34.93 34.93 34.93 34.93
7/24/2019 07:00 to 6:10 34.93 34.93 34.93 34.93 34.93 34.93
7/24/2019 06:00 to 5:10 34.93 34.93 34.93 34.93 34.93 34.93
7/24/2019 05:00 to 4:10 34.93 34.93 34.93 34.93 34.93 34.93
7/24/2019 04:00 to 3:10 34.93 34.93 34.93 34.93 34.93 34.93
7/24/2019 03:00 to 2:10 34.93 34.93 34.93 34.93 34.93 34.92
7/24/2019 02:00 to 1:10 34.93 34.92 34.92 34.92 34.92 34.92
7/24/2019 01:00 to 0:10 34.92 34.92 34.92 34.92 34.92 34.92